This is the latest recevied weather packets stored in our database for station/object F5LKO-13. If no packets are shown the sender has not sent any weather packets the latest 10 day(s).
| Time | Temp. | Humidity | Pressure | Rain* | Wind** | Luminosity | Snow |
|---|---|---|---|---|---|---|---|
| 1777801963 | 24.44° C | 99% | 1015.1 hPa | 0 mm | - | 29 W/m² | - |
| 1777801648 | 23.33° C | 99% | 1015.1 hPa | 0 mm | - | 7 W/m² | - |
| 1777801342 | 23.33° C | 99% | 1015.1 hPa | 0 mm | - | 28 W/m² | - |
| 1777801036 | 23.33° C | 99% | 1015.1 hPa | 0 mm | - | 28 W/m² | - |
| 1777800730 | 22.78° C | 99% | 1015.1 hPa | 0 mm | - | 18 W/m² | - |
| 1777800424 | 22.78° C | 99% | 1015.1 hPa | 0 mm | - | 14 W/m² | - |
| 1777800127 | 21.67° C | 99% | 1015.1 hPa | 0 mm | - | 14 W/m² | - |
| 1777799812 | 21.11° C | 99% | 1015.1 hPa | 0 mm | - | 16 W/m² | - |
| 1777799506 | 21.11° C | 99% | 1015.2 hPa | 0 mm | - | 16 W/m² | - |
| 1777799200 | 21.67° C | 99% | 1015.2 hPa | 0 mm | - | 10 W/m² | - |
| 1777798894 | 21.67° C | 99% | 1015.2 hPa | 0 mm | - | 17 W/m² | - |
| 1777798587 | 21.67° C | 99% | 1015.2 hPa | 0 mm | - | 7 W/m² | - |
| 1777798289 | 23.33° C | 99% | 1015.2 hPa | 0 mm | - | 10 W/m² | - |
| 1777797974 | 24.44° C | 99% | 1015.2 hPa | 0 mm | - | 9 W/m² | - |
| 1777797669 | 22.78° C | 99% | 1015.2 hPa | 0 mm | - | 29 W/m² | - |
| 1777797363 | 21.67° C | 99% | 1015.2 hPa | 0 mm | - | 26 W/m² | - |
| 1777797057 | 21.67° C | 99% | 1015.1 hPa | 0 mm | - | 17 W/m² | - |
| 1777796751 | 21.11° C | 99% | 1015.2 hPa | 0 mm | - | 18 W/m² | - |
| 1777796453 | 19.44° C | 99% | 1015.3 hPa | 0 mm | - | 27 W/m² | - |
| 1777796138 | 19.44° C | 99% | 1015.2 hPa | 0 mm | - | 13 W/m² | - |
| 1777795832 | 20° C | 99% | 1015.3 hPa | 0 mm | - | 7 W/m² | - |
| 1777795526 | 20° C | 99% | 1015.3 hPa | 0 mm | - | 6 W/m² | - |
| 1777795221 | 18.89° C | 99% | 1015.3 hPa | 0 mm | - | 9 W/m² | - |
| 1777794913 | 19.44° C | 99% | 1015.3 hPa | 0 mm | - | 11 W/m² | - |
| 1777794616 | 18.89° C | 99% | 1015.3 hPa | 0 mm | - | 7 W/m² | - |
* Rain latest hour (hover to see other rain measurements)
** Current wind speed in m/s (hover to see current wind gust speed)